FW0772 Weather Reports


time (UTC)temp
C
wind
direction
speed
KPH
gust
KPH
rain 1hr
cm
rain 24hr
cm
rain mn
cm
humidity
%
barometer
mb
20260504223033 7 0 0.0 0.0 0.00 0.00 0.00 92 1012.9
20260504221538 8 0 0.0 1.6 0.00 0.00 0.00 92 1012.8
20260504220046 8 0 0.0 0.0 0.00 0.00 0.00 91 1012.8
20260504214547 8 0 0.0 0.0 0.00 0.00 0.00 90 1012.9
20260504213042 9 0 0.0 0.0 0.00 0.00 0.00 90 1012.9
20260504211534 9 0 0.0 0.0 0.00 0.00 0.00 89 1013.1
20260504210040 10 0 0.0 0.0 0.00 0.00 0.00 88 1013.1
20260504204538 10 0 0.0 0.0 0.00 0.00 0.00 87 1013.2
20260504203038 10 0 0.0 0.0 0.00 0.00 0.00 86 1013.3
20260504201537 11 0 0.0 1.6 0.00 0.00 0.00 85 1013.3
20260504200041 12 0 0.0 0.0 0.00 0.00 0.00 82 1013.1
20260504194536 12 0 0.0 0.0 0.00 0.00 0.00 81 1013.1
20260504193037 13 0 0.0 0.0 0.00 0.00 0.00 80 1013.3
20260504191551 13 0 0.0 3.2 0.00 0.00 0.00 79 1013.1
20260504190038 14 0 0.0 3.2 0.00 0.00 0.00 78 1013.1
20260504184548 15 34 0.0 4.8 0.00 0.00 0.00 78 1013.1
20260504183041 15 0 0.0 6.4 0.00 0.00 0.00 77 1013.0
20260504181546 15 0 0.0 4.8 0.00 0.00 0.00 76 1012.8
20260504180036 15 0 1.6 11.3 0.00 0.00 0.00 74 1012.8
20260504174535 16 69 1.6 9.7 0.00 0.00 0.00 73 1012.4
20260504173032 16 5 1.6 11.3 0.00 0.00 0.00 72 1012.3
20260504171532 16 33 1.6 6.4 0.00 0.00 0.00 71 1012.3
20260504081536 18 319 9.7 19.3 0.00 0.00 0.00 67 1011.8
20260504044541 15 0 0.0 1.6 0.00 0.00 0.00 73 1010.3
20260504043035 15 0 0.0 4.8 0.00 0.00 0.00 72 1010.5
20260504041532 15 192 0.0 1.6 0.00 0.00 0.00 72 1010.6
20260504040033 15 263 1.6 4.8 0.00 0.00 0.00 71 1010.4
20260504034552 15 0 0.0 1.6 0.00 0.00 0.00 70 1010.5
20260504033044 15 0 0.0 4.8 0.00 0.00 0.00 68 1010.2
20260504031535 15 0 0.0 1.6 0.00 0.00 0.00 67 1010.3
20260504030045 16 0 0.0 3.2 0.00 0.00 0.00 66 1009.8
20260504024544 16 285 1.6 4.8 0.00 0.00 0.00 65 1010.2
20260504023049 16 0 0.0 0.0 0.00 0.00 0.00 64 1010.1
20260504021535 16 259 0.0 4.8 0.00 0.00 0.00 63 1009.9
20260504020032 16 259 3.2 9.7 0.00 0.00 0.00 61 1009.9
20260504014544 17 0 0.0 4.8 0.00 0.00 0.00 60 1009.6
20260504013045 17 277 3.2 11.3 0.00 0.00 0.00 58 1009.5
20260504011536 18 258 8.0 14.5 0.00 0.00 0.00 55 1009.5
20260504010044 18 303 6.4 17.7 0.00 0.00 0.00 54 1009.4
20260504004536 18 268 4.8 14.5 0.00 0.00 0.00 54 1009.4
20260504003036 17 266 4.8 11.3 0.00 0.00 0.00 58 1009.5
20260504001540 15 274 3.2 9.7 0.00 0.00 0.00 71 1009.4
20260504000339 14 0 0.0 0.0 0.00 0.00 0.00 76 1009.6
20260503234541 14 0 0.0 0.0 0.00 0.00 0.00 76 1009.4
20260503233040 14 0 0.0 0.0 0.00 0.00 0.00 76 1009.5
20260503231540 14 0 0.0 0.0 0.00 0.00 0.00 76 1009.6
20260503230040 13 0 0.0 0.0 0.00 0.00 0.00 77 1009.4
20260503224536 13 0 0.0 0.0 0.00 0.00 0.00 77 1009.5